[[{"header":{"parameterUnit":"m.s-1","parameterCategory":1,"la1":30.2991,"la2":30.254,"lo1":-89.0895,"lo2":-89.0444,"dy":0.0017,"dx":0.0017,"nx":28,"ny":28,"refTime":"2024-10-07T21:00:00:Z","depth":0,"parameterNumber":2,"parameterNumberName":"U-component_of_WINDS"},"data":[0,0,0,0,0,0,0,0,0,0,0,0,0,0,0,0,0,0,0,0,0,0,0,0,0,0,0,0,0,0,0,0,0,0,0,0,0,0,0,0,0,0,0,0,0,0,0,0,0,0,0,0,0,0,0,0,0,0,-3.8729,-3.8729,0,-3.875,-3.875,-3.8751,-3.873,-3.8729,-3.8729,-3.8728,-3.8749,-3.875,-3.8751,0,0,0,0,0,0,0,0,0,0,0,0,0,-3.867,-3.8671,-3.8729,-3.8729,-3.8729,-3.875,-3.875,-3.8751,-3.873,-3.8729,-3.8728,-3.8727,-3.8748,-3.875,-3.8751,0,0,0,0,0,0,0,0,0,0,0,0,0,-3.8694,-3.8672,-3.8729,-3.8722,-3.8721,-3.875,-3.875,-3.8751,-3.8731,-3.8729,-3.8728,-3.8727,-3.8748,-3.875,-3.8751,-3.8788,0,0,-3.8757,-3.8758,0,0,0,0,0,0,0,0,-3.8693,-3.8696,-3.8723,-3.8722,-3.8722,-3.8736,-3.8737,-3.8763,-3.8731,-3.8727,-3.8728,-3.8726,-3.8745,-3.8747,-3.8754,-3.8789,-3.879,-3.8758,-3.8759,-3.876,-3.876,0,0,0,0,0,0,0,-3.8691,-3.8695,-3.8737,-3.8723,-3.8723,-3.8717,-3.8719,-3.8742,-3.8743,-3.8727,-3.8726,-3.8729,-3.8745,-3.8752,-3.8754,-3.879,-3.8758,-3.8759,-3.876,-3.8761,-3.8857,-3.8858,0,0,0,0,0,0,-3.869,-3.8694,-3.8736,-3.8738,-3.8704,-3.8719,-3.8722,-3.8733,-3.8742,-3.8743,-3.873,-3.8728,-3.8749,-3.8752,-3.8755,-3.8799,-3.876,-3.8761,-3.8763,-3.8855,-3.8857,-3.8858,0,0,0,0,0,0,-3.8689,-3.8694,-3.8736,-3.8716,-3.872,-3.8722,-3.8734,-3.8734,-3.8741,-3.8744,-3.8744,-3.8737,-3.8749,-3.8752,-3.878,-3.8799,-3.8762,-3.8764,-3.8854,-3.8856,-3.8858,-3.8886,0,0,0,0,0,0,-3.8688,-3.8694,-3.8708,-3.8716,-3.8722,-3.876,-3.8736,-3.8735,-3.8745,-3.8742,-3.8751,-3.8751,-3.8748,-3.8777,-3.8782,-3.8801,-3.8766,-3.8852,-3.8855,-3.8857,-3.8883,-3.8889,-3.8893,0,0,0,0,0,-3.8686,-3.8714,-3.8709,-3.8714,-3.8739,-3.8761,-3.8765,-3.876,-3.8746,-3.876,-3.8762,-3.8751,-3.8796,-3.878,-3.8785,-3.8805,-3.8851,-3.8854,-3.8857,-3.8881,-3.8888,-3.8893,0,0,0,0,0,0,-3.8707,-3.8715,-3.8709,-3.8741,-3.8751,-3.8758,-3.8775,-3.8767,-3.8781,-3.8778,-3.8772,-3.8774,-3.8804,-3.8807,-3.8789,-3.8842,-3.8821,-3.8825,-3.8838,-3.8844,-3.8849,-3.8847,-3.8767,0,0,0,0,0,-3.8716,-3.8734,-3.874,-3.8768,-3.8773,-3.8774,-3.8783,-3.8779,-3.8789,-3.8793,-3.8797,-3.8807,-3.8823,-3.8834,-3.8849,-3.8884,-3.8886,-3.89,-3.8905,-3.891,-3.8913,-3.8933,-3.8939,-3.8868,-3.8868,-3.8868,0,0,-3.8734,-3.8741,-3.8752,-3.8773,-3.878,-3.8799,-3.8777,-3.8798,-3.8811,-3.8796,-3.8822,-3.8826,-3.8836,-3.8868,-3.8882,-3.8872,-3.8933,-3.8913,-3.8917,-3.8918,-3.8936,-3.8943,-3.8949,-3.887,-3.887,-3.887,0,0,-3.8776,-3.8783,-3.8808,-3.8816,-3.8827,-3.8827,-3.8833,-3.8842,-3.8844,-3.8871,-3.886,-3.8876,-3.8904,-3.8912,-3.892,-3.8968,-3.8958,-3.8973,-3.8999,-3.9018,-3.9023,-3.9028,-3.9045,-3.9052,-3.8976,-3.8976,-3.8977,0,-3.8797,-3.8825,-3.8821,-3.8843,-3.8852,-3.884,-3.8865,-3.8873,-3.8888,-3.8895,-3.8884,-3.892,-3.8926,-3.896,-3.8972,-3.8978,-3.8985,-3.8971,-3.9023,-3.9028,-3.9032,-3.9049,-3.9055,-3.8978,-3.8978,-3.8978,-3.8978,0,-3.885,-3.887,-3.8888,-3.8905,-3.8916,-3.894,-3.8939,-3.8952,-3.8947,-3.8949,-3.8977,-3.8984,-3.9001,-3.9009,-3.9004,-3.9042,-3.9036,-3.9024,-3.9003,-3.9041,-3.9056,-3.9062,-3.8981,-3.898,-3.898,-3.8979,0,0,-3.8905,-3.8921,-3.8927,-3.8935,-3.8947,-3.8962,-3.8986,-3.9003,-3.9014,-3.9025,-3.9044,-3.907,-3.9059,-3.9068,-3.9064,-3.9081,-3.9119,-3.9067,-3.9068,-3.9077,-3.9162,-3.9171,-3.9178,-3.9113,-3.9114,-3.9115,-3.9161,0,-3.8948,-3.8989,-3.8986,-3.9024,-3.9043,-3.9032,-3.9052,-3.9062,-3.9065,-3.9081,-3.9083,-3.9101,-3.9086,-3.9091,-3.9108,-3.9111,-3.9136,-3.9108,-3.9131,-3.9132,-3.9128,-3.9186,-3.9195,-3.9238,-3.9167,-3.9168,-3.9169,0,-3.9003,-3.9018,-3.9058,-3.9068,-3.9076,-3.9094,-3.911,-3.9126,-3.9137,-3.9138,-3.9149,-3.9143,-3.9166,-3.9146,-3.9179,-3.9159,-3.9169,-3.9172,-3.9174,-3.9175,-3.9152,-3.9189,-3.9251,-3.9258,-3.9178,-3.9177,-3.9177,0,-3.904,-3.9069,-3.9097,-3.9104,-3.9117,-3.913,-3.9136,-3.9146,-3.9157,-3.9172,-3.9179,-3.9195,-3.9204,-3.9218,-3.9217,-3.9202,-3.925,-3.9229,-3.9251,-3.9251,-3.9261,-3.926,-3.9326,-3.9268,-3.9268,-3.9268,-3.9268,0,-3.9087,-3.9112,-3.9114,-3.9131,-3.9159,-3.9156,-3.9184,-3.9188,-3.9198,-3.9216,-3.9208,-3.9225,-3.9223,-3.924,-3.9239,-3.9267,-3.9271,-3.9272,-3.9272,-3.9273,-3.9273,-3.9278,-3.9275,-3.9269,-3.9269,-3.9269,-3.9268,0,-3.9132,-3.9134,-3.9164,-3.9175,-3.9178,-3.9198,-3.9207,-3.9224,-3.9226,-3.9249,-3.9254,-3.9258,-3.9278,-3.9279,-3.9301,-3.9301,-3.9335,-3.9331,-3.9331,-3.933,-3.9352,-3.935,-3.9423,-3.9433,-3.9369,-3.937,-3.937,0,-3.9162,-3.9181,-3.9195,-3.9206,-3.9213,-3.9232,-3.9244,-3.9243,-3.9255,-3.927,-3.9285,-3.9304,-3.932,-3.9352,-3.9357,-3.9375,-3.9371,-3.9396,-3.9374,-3.9375,-3.9372,-3.937,-3.9372,-3.94,-3.94,-3.9401,-3.9402,0,-3.9215,-3.9216,-3.9233,-3.9251,-3.9265,-3.9279,-3.9292,-3.9302,-3.9302,-3.9316,-3.9337,-3.9349,-3.9373,-3.9393,-3.941,-3.9417,-3.9409,-3.9409,-3.9415,-3.9416,-3.9415,-3.9416,-3.9342,-3.9407,-3.9406,-3.9406,-3.9406,-3.9405,-3.9254,-3.9271,-3.9283,-3.9302,-3.9312,-3.9325,-3.9341,-3.9346,-3.9364,-3.9383,-3.9382,-3.9405,-3.9417,-3.944,-3.9448,-3.9466,-3.9457,-3.9466,-3.9468,-3.947,-3.9473,-3.9413,-3.9469,-3.9469,-3.9469,-3.9469,-3.9469,0,-3.9307,-3.9314,-3.9333,-3.9351,-3.9367,-3.936,-3.9374,-3.9387,-3.9408,-3.942,-3.9436,-3.946,-3.948,-3.9487,-3.9506,-3.9519,-3.9516,-3.9524,-3.9523,-3.9524,-3.9479,-3.9472,-3.9526,-3.9526,-3.9526,-3.9526,-3.9526,-3.9526,-3.9336,-3.9364,-3.9366,-3.94,-3.9407,-3.9431,-3.9439,-3.9451,-3.9461,-3.9489,-3.9505,-3.951,-3.952,-3.954,-3.9557,-3.9559,-3.9566,-3.9575,-3.9576,-3.9533,-3.9527,-3.9522,-3.9515,-3.9577,-3.9577,-3.9619,-3.962,-3.962]},{"header":{"parameterUnit":"m.s-1","parameterCategory":1,"la1":30.2991,"la2":30.254,"lo1":-89.0895,"lo2":-89.0444,"dy":0.0017,"dx":0.0017,"nx":28,"ny":28,"refTime":"2024-10-07T21:00:00:Z","depth":0,"parameterNumber":3,"parameterNumberName":"V-component_of_WINDS"},"data":[0,0,0,0,0,0,0,0,0,0,0,0,0,0,0,0,0,0,0,0,0,0,0,0,0,0,0,0,0,0,0,0,0,0,0,0,0,0,0,0,0,0,0,0,0,0,0,0,0,0,0,0,0,0,0,0,0,0,-3.4697,-3.4696,0,-3.4654,-3.4654,-3.4653,-3.4644,-3.4645,-3.4645,-3.4645,-3.4598,-3.4597,-3.4595,0,0,0,0,0,0,0,0,0,0,0,0,0,-3.4769,-3.4768,-3.4697,-3.4696,-3.4696,-3.4654,-3.4654,-3.4653,-3.4644,-3.4645,-3.4645,-3.4645,-3.4599,-3.4597,-3.4595,0,0,0,0,0,0,0,0,0,0,0,0,0,-3.4733,-3.4768,-3.4697,-3.4686,-3.4685,-3.4655,-3.4654,-3.4653,-3.4644,-3.4645,-3.4645,-3.4646,-3.46,-3.4597,-3.4595,-3.4571,0,0,-3.4588,-3.4587,0,0,0,0,0,0,0,0,-3.4735,-3.4731,-3.4689,-3.4687,-3.4686,-3.4655,-3.4662,-3.4625,-3.4644,-3.466,-3.4645,-3.4646,-3.4617,-3.4613,-3.4604,-3.4569,-3.4567,-3.4588,-3.4586,-3.4585,-3.4585,0,0,0,0,0,0,0,-3.4738,-3.4732,-3.468,-3.4688,-3.4686,-3.4683,-3.4679,-3.4655,-3.4636,-3.4658,-3.4657,-3.4653,-3.4616,-3.4606,-3.4603,-3.4566,-3.4588,-3.4586,-3.4584,-3.4583,-3.4512,-3.4511,0,0,0,0,0,0,-3.4743,-3.4735,-3.4681,-3.4679,-3.4712,-3.4682,-3.4677,-3.4664,-3.4636,-3.4632,-3.4652,-3.4652,-3.461,-3.4605,-3.4601,-3.4573,-3.4585,-3.4583,-3.4582,-3.4512,-3.4512,-3.4511,0,0,0,0,0,0,-3.4744,-3.4738,-3.4683,-3.4706,-3.4699,-3.468,-3.4666,-3.4663,-3.4653,-3.4632,-3.4628,-3.4646,-3.461,-3.4604,-3.4579,-3.4571,-3.4582,-3.458,-3.4513,-3.4512,-3.4511,-3.4515,0,0,0,0,0,0,-3.4746,-3.4739,-3.4729,-3.4706,-3.4698,-3.4662,-3.4666,-3.4662,-3.465,-3.465,-3.4625,-3.4621,-3.461,-3.4583,-3.4577,-3.4568,-3.4578,-3.4514,-3.4513,-3.4512,-3.4515,-3.4514,-3.4513,0,0,0,0,0,-3.4749,-3.4731,-3.4729,-3.4722,-3.4686,-3.4662,-3.4657,-3.4646,-3.4649,-3.464,-3.4626,-3.4622,-3.4573,-3.458,-3.4574,-3.4564,-3.4514,-3.4513,-3.4512,-3.4516,-3.4514,-3.4513,0,0,0,0,0,0,-3.4751,-3.4727,-3.4725,-3.4699,-3.4683,-3.466,-3.4648,-3.4644,-3.4626,-3.4626,-3.4612,-3.4606,-3.4583,-3.457,-3.4579,-3.454,-3.4544,-3.4541,-3.4549,-3.4547,-3.4546,-3.455,-3.4576,0,0,0,0,0,-3.4749,-3.4732,-3.4712,-3.4691,-3.4683,-3.4667,-3.4656,-3.4649,-3.4631,-3.4624,-3.4608,-3.459,-3.4571,-3.4559,-3.4539,-3.4514,-3.4509,-3.4504,-3.4503,-3.4502,-3.45,-3.4487,-3.4485,-3.4507,-3.4507,-3.4507,0,0,-3.4743,-3.4728,-3.4718,-3.4691,-3.4677,-3.466,-3.4661,-3.4642,-3.4629,-3.462,-3.4597,-3.4585,-3.4564,-3.4539,-3.4527,-3.4528,-3.4493,-3.4501,-3.45,-3.4498,-3.4486,-3.4484,-3.4482,-3.4507,-3.4507,-3.4507,0,0,-3.4725,-3.4711,-3.4694,-3.4681,-3.4661,-3.4651,-3.4647,-3.4626,-3.4619,-3.4595,-3.4589,-3.4573,-3.454,-3.4526,-3.4514,-3.4494,-3.449,-3.4488,-3.4483,-3.447,-3.4469,-3.4467,-3.4461,-3.4459,-3.4486,-3.4486,-3.4486,0,-3.472,-3.4694,-3.4684,-3.4667,-3.4655,-3.4649,-3.4631,-3.4619,-3.4593,-3.4586,-3.4588,-3.4548,-3.4533,-3.4506,-3.4501,-3.4492,-3.4487,-3.4491,-3.447,-3.4468,-3.4467,-3.446,-3.4458,-3.4486,-3.4486,-3.4486,-3.4486,0,-3.469,-3.4673,-3.466,-3.4639,-3.4626,-3.4608,-3.4595,-3.4584,-3.4579,-3.4569,-3.4545,-3.4528,-3.4507,-3.45,-3.4493,-3.4472,-3.4474,-3.4473,-3.4476,-3.4465,-3.4459,-3.4456,-3.4486,-3.4486,-3.4486,-3.4486,0,0,-3.467,-3.4645,-3.4641,-3.4632,-3.4611,-3.4597,-3.458,-3.456,-3.4551,-3.4534,-3.452,-3.4493,-3.4493,-3.448,-3.4473,-3.4462,-3.4449,-3.4463,-3.4462,-3.4462,-3.4426,-3.4427,-3.4424,-3.4446,-3.4446,-3.4445,-3.4428,0,-3.465,-3.4619,-3.4611,-3.4585,-3.4569,-3.4564,-3.4549,-3.4535,-3.4526,-3.4511,-3.45,-3.4482,-3.4483,-3.4476,-3.4465,-3.4453,-3.4442,-3.4454,-3.4432,-3.4432,-3.4438,-3.4421,-3.4421,-3.4406,-3.4426,-3.4425,-3.4425,0,-3.4621,-3.4607,-3.458,-3.4564,-3.4557,-3.4543,-3.4526,-3.4512,-3.4496,-3.449,-3.4477,-3.4471,-3.4453,-3.4458,-3.4433,-3.4442,-3.4433,-3.4426,-3.4425,-3.4422,-3.4428,-3.4419,-3.44,-3.4398,-3.4421,-3.4421,-3.4421,0,-3.4611,-3.4584,-3.4565,-3.4558,-3.4538,-3.4529,-3.452,-3.4505,-3.4494,-3.4479,-3.4472,-3.4455,-3.4445,-3.4431,-3.4421,-3.4425,-3.4397,-3.4401,-3.4392,-3.4392,-3.4386,-3.4387,-3.4367,-3.438,-3.438,-3.438,-3.438,0,-3.4589,-3.4573,-3.4561,-3.4549,-3.4531,-3.4522,-3.4505,-3.4496,-3.4483,-3.4469,-3.4463,-3.4451,-3.4438,-3.4423,-3.4415,-3.4396,-3.4392,-3.4387,-3.4385,-3.4387,-3.4388,-3.4381,-3.4382,-3.4379,-3.4379,-3.4379,-3.438,0,-3.4574,-3.4565,-3.4544,-3.4529,-3.4524,-3.4512,-3.4498,-3.4487,-3.4478,-3.4461,-3.4457,-3.4443,-3.4426,-3.4415,-3.4392,-3.4387,-3.4367,-3.4365,-3.4373,-3.4372,-3.4365,-3.4366,-3.4339,-3.4336,-3.4351,-3.4351,-3.4351,0,-3.4561,-3.4549,-3.4533,-3.4524,-3.4516,-3.4502,-3.4492,-3.4483,-3.4473,-3.4456,-3.4446,-3.443,-3.4416,-3.4389,-3.4377,-3.436,-3.4358,-3.435,-3.4355,-3.4359,-3.4359,-3.436,-3.4359,-3.4349,-3.4349,-3.4349,-3.4349,0,-3.4539,-3.4536,-3.4523,-3.4509,-3.4498,-3.4485,-3.4473,-3.4466,-3.4455,-3.4444,-3.4428,-3.4417,-3.4396,-3.438,-3.4363,-3.4353,-3.4349,-3.4347,-3.4345,-3.4347,-3.4353,-3.4351,-3.4371,-3.4348,-3.4348,-3.4348,-3.4348,-3.4348,-3.4525,-3.4515,-3.4503,-3.4489,-3.4479,-3.4469,-3.4458,-3.4449,-3.4436,-3.4419,-3.4415,-3.4398,-3.4384,-3.4361,-3.4351,-3.4338,-3.4339,-3.4334,-3.4333,-3.4332,-3.4333,-3.4355,-3.4335,-3.4335,-3.4335,-3.4335,-3.4335,0,-3.4504,-3.4497,-3.4484,-3.4468,-3.4458,-3.4457,-3.4444,-3.4435,-3.442,-3.4408,-3.4396,-3.4378,-3.4362,-3.435,-3.4334,-3.4326,-3.4324,-3.4322,-3.4323,-3.4321,-3.4333,-3.4337,-3.4324,-3.4324,-3.4324,-3.4324,-3.4324,-3.4324,-3.4492,-3.4475,-3.4471,-3.445,-3.4443,-3.4427,-3.442,-3.4411,-3.4401,-3.4382,-3.437,-3.4363,-3.4351,-3.4335,-3.4321,-3.4317,-3.4312,-3.4311,-3.4307,-3.4319,-3.432,-3.4321,-3.4325,-3.431,-3.431,-3.4296,-3.4296,-3.4296]}]]